CW7352 Weather Reports


Display with metric or nautical units.
time (UTC)temp
F
wind
direction
speed
MPH
gust
MPH
rain 1hr
in
rain 24hr
in
rain mn
in
humidity
%
barometer
mb
20260506015003 37 0 0.0 0.0 0.00 0.00 0.00 72 1012.2
20260506014003 37 0 0.0 0.0 0.00 0.00 0.00 72 1012.2
20260506013003 37 0 0.0 0.0 0.00 0.00 0.00 71 1012.2
20260506012003 38 0 0.0 0.0 0.00 0.00 0.00 70 1012.2
20260506011216 38 0 0.0 0.0 0.00 0.00 0.00 70 1012.2
20260506010003 39 0 0.0 0.0 0.00 0.00 0.00 68 1012.1
20260506005003 40 0 0.0 0.0 0.00 0.00 0.00 68 1012.0
20260506004003 40 0 0.0 0.0 0.00 0.00 0.00 68 1012.1
20260506003003 40 0 0.0 0.0 0.00 0.00 0.00 68 1012.1
20260506002003 41 0 0.0 0.0 0.00 0.00 0.00 68 1012.1
20260506001003 42 0 0.0 0.0 0.00 0.00 0.00 67 1012.1
20260506000003 42 0 0.0 0.0 0.00 0.00 0.00 65 1012.0
20260505235003 43 0 0.0 0.0 0.00 0.00 0.00 64 1012.1
20260505234003 44 0 0.0 0.0 0.00 0.00 0.00 62 1012.2
20260505233003 45 0 0.0 0.0 0.00 0.00 0.00 60 1012.2
20260505232003 45 0 0.0 0.0 0.00 0.00 0.00 58 1012.2
20260505231003 47 0 0.0 0.0 0.00 0.00 0.00 55 1012.1
20260505230003 47 0 0.0 0.0 0.00 0.00 0.00 52 1012.1
20260505225003 47 0 0.0 0.0 0.00 0.00 0.00 51 1012.1
20260505224003 47 0 0.0 0.0 0.00 0.00 0.00 50 1012.2
20260505223003 48 338 10.0 10.0 0.00 0.00 0.00 50 1012.2
20260505222217 48 343 12.0 12.0 0.00 0.00 0.00 50 1012.2
20260505221217 48 4 6.0 6.0 0.00 0.00 0.00 50 1012.2
20260505220003 48 352 0.0 8.0 0.00 0.00 0.00 51 1012.2
20260505215003 48 349 0.0 1.0 0.00 0.00 0.00 53 1012.2
20260505214003 47 348 1.0 10.0 0.00 0.00 0.00 52 1012.2
20260505213003 47 346 1.0 10.0 0.00 0.00 0.00 55 1012.2
20260505212217 47 357 1.0 10.0 0.00 0.00 0.00 58 1012.2
20260505211003 48 349 1.0 4.0 0.00 0.00 0.00 59 1012.1
20260505210003 48 345 1.0 6.0 0.00 0.00 0.00 59 1012.2
20260505205003 47 360 0.0 7.0 0.00 0.00 0.00 61 1012.1
20260505204003 47 1 0.0 1.0 0.00 0.00 0.00 63 1012.1
20260505203003 48 0 0.0 0.0 0.00 0.00 0.00 65 1012.1
20260505202003 47 0 0.0 0.0 0.00 0.00 0.00 66 1012.1
20260505201003 48 360 0.0 1.0 0.00 0.00 0.00 66 1012.1
20260505200003 47 0 1.0 7.0 0.00 0.00 0.00 66 1012.1
20260505195217 47 329 1.0 10.0 0.00 0.00 0.00 67 1012.1
20260505194003 48 326 0.0 5.0 0.00 0.00 0.00 67 1012.0
20260505193003 48 0 0.0 0.0 0.00 0.00 0.00 66 1011.9
20260505192003 48 0 0.0 0.0 0.00 0.00 0.00 66 1011.9
20260505191003 49 353 0.0 6.0 0.00 0.00 0.00 64 1011.8
20260505190003 49 0 0.0 0.0 0.00 0.00 0.00 63 1011.8
20260505185003 49 0 0.0 0.0 0.00 0.00 0.00 63 1011.8
20260505184003 50 0 0.0 0.0 0.00 0.00 0.00 62 1011.7
20260505183003 50 0 0.0 0.0 0.00 0.00 0.00 62 1011.7
20260505182003 51 0 0.0 0.0 0.00 0.00 0.00 60 1011.7
20260505181003 51 348 6.0 6.0 0.00 0.00 0.00 56 1011.7
20260505180218 52 0 1.0 1.0 0.00 0.00 0.00 57 1011.8
20260505175003 52 345 1.0 5.0 0.00 0.00 0.00 58 1011.8
20260505174003 52 344 1.0 11.0 0.00 0.00 0.00 58 1011.8
20260505173003 52 334 2.0 8.0 0.00 0.00 0.00 58 1011.7
20260505172003 52 339 1.0 12.0 0.00 0.00 0.00 58 1011.8
20260505171003 53 304 0.0 10.0 0.00 0.00 0.00 58 1011.8
20260505170217 53 0 0.0 0.0 0.00 0.00 0.00 59 1011.8
20260505165003 53 338 0.0 8.0 0.00 0.00 0.00 59 1011.9
20260505164003 53 321 1.0 11.0 0.00 0.00 0.00 57 1011.9
20260505163003 53 334 2.0 8.0 0.00 0.00 0.00 55 1011.8
20260505162003 54 334 1.0 12.0 0.00 0.00 0.00 54 1011.8
20260505161003 54 337 1.0 11.0 0.00 0.00 0.00 54 1011.9
20260505153217 55 328 1.0 13.0 0.00 0.00 0.00 52 1011.9
20260505152217 56 338 1.0 6.0 0.00 0.00 0.00 54 1011.9
20260505151003 57 342 2.0 16.0 0.00 0.00 0.00 54 1011.9
20260505125003 60 344 3.0 12.0 0.00 0.00 0.00 52 1011.9
20260505124003 61 336 2.0 13.0 0.00 0.00 0.00 48 1011.8
20260505123003 61 328 3.0 13.0 0.00 0.00 0.00 51 1011.9
20260505122003 61 326 3.0 12.0 0.00 0.00 0.00 52 1012.0
20260505121003 61 328 2.0 11.0 0.00 0.00 0.00 52 1012.0
20260505120004 60 342 3.0 16.0 0.00 0.00 0.00 54 1011.9
20260505115003 60 327 2.0 12.0 0.00 0.00 0.00 53 1011.9
20260505114217 60 336 2.0 16.0 0.00 0.00 0.00 56 1011.9
20260505113003 59 331 3.0 12.0 0.00 0.00 0.00 57 1011.9
20260505112003 59 334 3.0 11.0 0.00 0.00 0.00 56 1012.0
20260505111003 59 335 2.0 13.0 0.00 0.00 0.00 56 1011.9
20260505102003 57 336 3.0 11.0 0.00 0.00 0.00 61 1011.8
20260505101003 57 324 2.0 11.0 0.00 0.00 0.00 62 1011.9
20260505100003 57 320 4.0 11.0 0.00 0.00 0.00 63 1011.9
20260505095217 56 326 4.0 13.0 0.00 0.00 0.00 63 1011.9
20260505094003 56 334 2.0 11.0 0.00 0.00 0.00 63 1011.8
20260505093003 56 334 3.0 12.0 0.00 0.00 0.00 65 1011.8
20260505092003 55 323 3.0 11.0 0.00 0.00 0.00 65 1011.9
20260505091003 55 328 3.0 12.0 0.00 0.00 0.00 66 1011.9
20260505090003 55 331 2.0 11.0 0.00 0.00 0.00 68 1011.8
20260505085003 54 329 2.0 13.0 0.00 0.00 0.00 69 1011.7
20260505084003 54 337 2.0 12.0 0.00 0.00 0.00 70 1011.7
20260505083003 53 334 3.0 13.0 0.00 0.00 0.00 70 1011.6
20260505082003 53 332 2.0 11.0 0.00 0.00 0.00 71 1011.6
20260505081003 53 330 3.0 11.0 0.00 0.00 0.00 72 1011.5
20260505080218 53 331 3.0 10.0 0.00 0.00 0.00 73 1011.5
20260505075003 52 330 2.0 11.0 0.00 0.00 0.00 76 1011.4
20260505074003 52 340 3.0 16.0 0.00 0.00 0.00 77 1011.4
20260505073003 52 330 2.0 10.0 0.00 0.00 0.00 78 1011.4
20260505072003 51 339 2.0 10.0 0.00 0.00 0.00 78 1011.3
20260505071003 51 334 1.0 8.0 0.00 0.00 0.00 79 1011.2
20260505070218 51 348 3.0 11.0 0.00 0.00 0.00 78 1011.2
20260505065003 52 338 2.0 13.0 0.00 0.00 0.00 78 1011.2
20260505064003 52 333 2.0 11.0 0.00 0.00 0.00 79 1011.1
20260505063003 52 351 0.0 14.0 0.00 0.00 0.00 80 1011.1
20260505062003 50 337 1.0 6.0 0.00 0.01 0.00 81 1011.0
20260505061217 50 336 1.0 6.0 0.00 0.01 0.00 81 1011.1
20260505060003 50 333 1.0 11.0 0.00 0.01 0.00 82 1011.1
20260505055217 50 330 1.0 11.0 0.00 0.01 0.00 82 1011.1
20260505054003 50 342 1.0 10.0 0.00 0.01 0.00 83 1011.1
20260505053217 50 337 1.0 7.0 0.00 0.01 0.00 83 1011.0
20260505052003 49 338 2.0 11.0 0.00 0.01 0.00 83 1011.0
20260505051003 49 344 1.0 11.0 0.00 0.01 0.00 83 1011.0
20260505041003 48 350 1.0 12.0 0.00 0.02 0.00 82 1010.8
20260505040217 48 353 1.0 13.0 0.00 0.02 0.00 82 1010.7
20260505035003 48 345 1.0 11.0 0.00 0.04 0.00 82 1010.7
20260505034003 48 314 1.0 5.0 0.00 0.04 0.00 82 1010.8
20260505033216 48 330 0.0 12.0 0.00 0.04 0.00 82 1010.8
20260505032003 48 282 1.0 8.0 0.00 0.05 0.00 82 1010.8
20260505031003 48 342 1.0 7.0 0.00 0.06 0.00 83 1010.8
20260505030003 48 346 1.0 5.0 0.00 0.06 0.00 82 1010.7
20260505025003 48 305 1.0 7.0 0.00 0.06 0.00 83 1010.8
20260505024003 48 326 2.0 11.0 0.00 0.06 0.00 83 1010.8
20260505023003 48 354 2.0 13.0 0.00 0.06 0.00 84 1010.9
20260505022218 48 347 1.0 10.0 0.00 0.06 0.00 84 1010.9
20260505021218 48 336 2.0 11.0 0.00 0.06 0.00 84 1011.0
20260505020003 48 344 2.0 12.0 0.00 0.06 0.00 85 1011.1